Time,TemperatureF,DewpointF,PressureIn,WindDirection,WindDirectionDegrees,WindSpeedMPH,WindSpeedGustMPH,Humidity,HourlyPrecipIn,Conditions,Clouds,dailyrainin,SoftwareType,DateUTC
2013-01-16 00:12:00,40.0,39.0,30.24,SSW,211,0.0,-999.0,96,-99.99,,,1.39,weatherlink.com 1.10,2013-01-16 05:12:00,
2013-01-16 00:27:00,40.0,39.0,30.23,SSW,211,0.0,-999.0,97,-99.99,,,1.40,weatherlink.com 1.10,2013-01-16 05:27:00,
2013-01-16 00:42:00,40.0,39.0,30.23,SSW,211,0.0,-999.0,97,-99.99,,,1.41,weatherlink.com 1.10,2013-01-16 05:42:00,
2013-01-16 00:57:00,40.1,39.0,30.23,SSW,211,0.0,-999.0,97,-99.99,,,1.42,weatherlink.com 1.10,2013-01-16 05:57:00,
2013-01-16 01:12:00,40.0,39.0,30.23,SSW,211,0.0,-999.0,97,-99.99,,,1.43,weatherlink.com 1.10,2013-01-16 06:12:00,
2013-01-16 01:27:00,40.0,39.0,30.23,SSW,211,0.0,-999.0,97,-99.99,,,1.43,weatherlink.com 1.10,2013-01-16 06:27:00,
2013-01-16 01:42:00,39.9,39.0,30.23,SSW,211,0.0,-999.0,96,-99.99,,,0.00,weatherlink.com 1.10,2013-01-16 06:42:00,
2013-01-16 01:57:00,39.8,39.0,30.23,SSW,211,0.0,-999.0,96,-99.99,,,0.01,weatherlink.com 1.10,2013-01-16 06:57:00,
2013-01-16 02:12:00,39.8,39.0,30.23,SW,232,0.0,-999.0,96,-99.99,,,0.01,weatherlink.com 1.10,2013-01-16 07:12:00,
2013-01-16 02:27:00,39.9,39.0,30.23,SW,232,0.0,-999.0,97,-99.99,,,0.01,weatherlink.com 1.10,2013-01-16 07:27:00,
2013-01-16 02:42:00,39.9,39.0,30.23,SW,232,0.0,-999.0,97,-99.99,,,0.01,weatherlink.com 1.10,2013-01-16 07:42:00,
2013-01-16 02:57:00,40.0,39.0,30.23,SW,232,0.0,-999.0,97,-99.99,,,0.02,weatherlink.com 1.10,2013-01-16 07:57:00,
2013-01-16 03:12:00,40.1,39.0,30.22,South,184,0.0,-999.0,97,-99.99,,,0.03,weatherlink.com 1.10,2013-01-16 08:12:00,
2013-01-16 03:27:00,40.0,39.0,30.21,South,171,0.0,-999.0,97,-99.99,,,0.03,weatherlink.com 1.10,2013-01-16 08:27:00,
2013-01-16 03:42:00,40.0,39.0,30.19,South,171,0.0,-999.0,97,-99.99,,,0.04,weatherlink.com 1.10,2013-01-16 08:42:00,
2013-01-16 03:57:00,40.0,39.0,30.19,South,171,0.0,-999.0,97,-99.99,,,0.06,weatherlink.com 1.10,2013-01-16 08:57:00,
2013-01-16 04:12:00,40.1,39.0,30.19,South,171,0.0,-999.0,97,-99.99,,,0.07,weatherlink.com 1.10,2013-01-16 09:12:00,
2013-01-16 04:27:00,40.1,39.0,30.19,South,171,0.0,-999.0,97,-99.99,,,0.07,weatherlink.com 1.10,2013-01-16 09:27:00,
2013-01-16 04:42:00,40.2,39.0,30.18,South,171,0.0,-999.0,97,-99.99,,,0.08,weatherlink.com 1.10,2013-01-16 09:42:00,
2013-01-16 04:57:00,40.3,40.0,30.17,South,171,0.0,-999.0,97,-99.99,,,0.08,weatherlink.com 1.10,2013-01-16 09:57:00,
2013-01-16 05:12:00,40.4,40.0,30.17,South,171,0.0,-999.0,97,-99.99,,,0.09,weatherlink.com 1.10,2013-01-16 10:12:00,
2013-01-16 05:27:00,40.4,40.0,30.16,South,171,0.0,-999.0,97,-99.99,,,0.09,weatherlink.com 1.10,2013-01-16 10:27:00,
2013-01-16 05:42:00,40.5,40.0,30.17,South,171,0.0,-999.0,97,-99.99,,,0.09,weatherlink.com 1.10,2013-01-16 10:42:00,
2013-01-16 05:57:00,40.5,40.0,30.17,South,171,0.0,-999.0,97,-99.99,,,0.11,weatherlink.com 1.10,2013-01-16 10:57:00,
2013-01-16 06:12:00,40.6,40.0,30.18,South,171,0.0,-999.0,97,-99.99,,,0.11,weatherlink.com 1.10,2013-01-16 11:12:00,
2013-01-16 06:27:00,40.6,40.0,30.18,South,171,0.0,-999.0,97,-99.99,,,0.11,weatherlink.com 1.10,2013-01-16 11:27:00,
2013-01-16 06:42:00,40.6,40.0,30.18,SSE,165,0.0,-999.0,97,-99.99,,,0.12,weatherlink.com 1.10,2013-01-16 11:42:00,
2013-01-16 06:57:00,40.6,40.0,30.18,SSE,165,0.0,-999.0,97,-99.99,,,0.12,weatherlink.com 1.10,2013-01-16 11:57:00,
2013-01-16 07:12:00,40.7,40.0,30.18,SSE,165,0.0,-999.0,97,-99.99,,,0.12,weatherlink.com 1.10,2013-01-16 12:12:00,
2013-01-16 07:27:00,40.7,40.0,30.18,SSE,165,0.0,-999.0,97,-99.99,,,0.12,weatherlink.com 1.10,2013-01-16 12:27:00,
2013-01-16 07:42:00,40.7,40.0,30.18,SSE,165,0.0,-999.0,97,-99.99,,,0.12,weatherlink.com 1.10,2013-01-16 12:42:00,
2013-01-16 07:57:00,40.7,40.0,30.19,SSE,165,0.0,-999.0,97,-99.99,,,0.12,weatherlink.com 1.10,2013-01-16 12:57:00,
2013-01-16 08:12:00,40.8,40.0,30.19,SSE,165,0.0,-999.0,97,-99.99,,,0.12,weatherlink.com 1.10,2013-01-16 13:12:00,
2013-01-16 08:27:00,40.9,40.0,30.20,SSE,165,1.0,-999.0,97,-99.99,,,0.14,weatherlink.com 1.10,2013-01-16 13:27:00,
2013-01-16 08:42:00,41.0,40.0,30.21,SSE,165,0.0,-999.0,97,-99.99,,,0.16,weatherlink.com 1.10,2013-01-16 13:42:00,
2013-01-16 08:57:00,41.1,40.0,30.22,NNW,339,0.0,-999.0,97,-99.99,,,0.21,weatherlink.com 1.10,2013-01-16 13:57:00,
2013-01-16 09:12:00,41.2,40.0,30.21,SE,144,0.0,-999.0,97,-99.99,,,0.29,weatherlink.com 1.10,2013-01-16 14:12:00,
2013-01-16 09:27:00,41.3,41.0,30.23,SE,144,0.0,-999.0,97,-99.99,,,0.31,weatherlink.com 1.10,2013-01-16 14:27:00,
2013-01-16 09:43:00,41.4,41.0,30.23,SE,144,1.0,-999.0,97,-99.99,,,0.31,weatherlink.com 1.10,2013-01-16 14:43:00,
2013-01-16 09:58:00,41.5,41.0,30.23,SE,144,0.0,-999.0,98,-99.99,,,0.32,weatherlink.com 1.10,2013-01-16 14:58:00,
2013-01-16 10:13:00,41.8,41.0,30.22,SE,144,0.0,-999.0,98,-99.99,,,0.33,weatherlink.com 1.10,2013-01-16 15:13:00,
2013-01-16 10:28:00,42.4,42.0,30.20,NNW,336,0.0,-999.0,98,-99.99,,,0.34,weatherlink.com 1.10,2013-01-16 15:28:00,
2013-01-16 10:43:00,42.8,42.0,30.20,NNW,336,0.0,-999.0,98,-99.99,,,0.34,weatherlink.com 1.10,2013-01-16 15:43:00,
2013-01-16 10:58:00,43.1,43.0,30.21,NNW,336,0.0,-999.0,98,-99.99,,,0.34,weatherlink.com 1.10,2013-01-16 15:58:00,
2013-01-16 11:13:00,43.5,43.0,30.20,NNW,336,0.0,-999.0,98,-99.99,,,0.34,weatherlink.com 1.10,2013-01-16 16:13:00,
2013-01-16 11:28:00,44.3,44.0,30.18,NNW,336,0.0,-999.0,98,-99.99,,,0.34,weatherlink.com 1.10,2013-01-16 16:28:00,
2013-01-16 11:43:00,44.7,44.0,30.18,SE,143,0.0,-999.0,98,-99.99,,,0.34,weatherlink.com 1.10,2013-01-16 16:43:00,
2013-01-16 11:58:00,44.7,44.0,30.17,SSW,200,2.0,-999.0,97,-99.99,,,0.34,weatherlink.com 1.10,2013-01-16 16:58:00,
2013-01-16 12:13:00,44.5,44.0,30.16,SSE,162,0.0,-999.0,97,-99.99,,,0.34,weatherlink.com 1.10,2013-01-16 17:13:00,
2013-01-16 12:28:00,44.6,44.0,30.14,SSE,162,0.0,-999.0,97,-99.99,,,0.34,weatherlink.com 1.10,2013-01-16 17:28:00,
2013-01-16 12:43:00,44.8,44.0,30.14,SSE,162,0.0,-999.0,97,-99.99,,,0.34,weatherlink.com 1.10,2013-01-16 17:43:00,
2013-01-16 12:58:00,45.0,44.0,30.12,SSE,162,0.0,-999.0,97,-99.99,,,0.34,weatherlink.com 1.10,2013-01-16 17:58:00,
2013-01-16 13:13:00,45.5,45.0,30.14,SSE,162,0.0,-999.0,96,-99.99,,,0.34,weatherlink.com 1.10,2013-01-16 18:13:00,
2013-01-16 13:28:00,45.8,45.0,30.13,SSE,162,0.0,-999.0,96,-99.99,,,0.34,weatherlink.com 1.10,2013-01-16 18:28:00,
2013-01-16 13:43:00,45.8,45.0,30.13,SSE,162,0.0,-999.0,96,-99.99,,,0.34,weatherlink.com 1.10,2013-01-16 18:43:00,
2013-01-16 13:58:00,46.0,45.0,30.13,SSE,162,0.0,-999.0,96,-99.99,,,0.34,weatherlink.com 1.10,2013-01-16 18:58:00,
2013-01-16 14:13:00,46.5,46.0,30.13,SSE,162,1.0,-999.0,96,-99.99,,,0.34,weatherlink.com 1.10,2013-01-16 19:13:00,
2013-01-16 14:28:00,47.3,46.0,30.13,SSE,162,0.0,-999.0,95,-99.99,,,0.34,weatherlink.com 1.10,2013-01-16 19:28:00,
2013-01-16 14:43:00,48.5,47.0,30.13,SSE,162,0.0,-999.0,94,-99.99,,,0.34,weatherlink.com 1.10,2013-01-16 19:43:00,
2013-01-16 14:58:00,49.4,48.0,30.13,SSE,162,4.0,-999.0,93,-99.99,,,0.34,weatherlink.com 1.10,2013-01-16 19:58:00,
2013-01-16 15:13:00,49.7,48.0,30.14,SE,132,1.0,-999.0,93,-99.99,,,0.34,weatherlink.com 1.10,2013-01-16 20:13:00,
2013-01-16 15:28:00,49.9,48.0,30.12,WSW,251,0.0,-999.0,93,-99.99,,,0.34,weatherlink.com 1.10,2013-01-16 20:28:00,
2013-01-16 15:43:00,50.4,49.0,30.14,SSE,165,0.0,-999.0,93,-99.99,,,0.34,weatherlink.com 1.10,2013-01-16 20:43:00,
2013-01-16 15:58:00,50.5,49.0,30.14,SSE,165,0.0,-999.0,93,-99.99,,,0.34,weatherlink.com 1.10,2013-01-16 20:58:00,
2013-01-16 16:13:00,50.7,49.0,30.14,SSE,165,0.0,-999.0,93,-99.99,,,0.34,weatherlink.com 1.10,2013-01-16 21:13:00,
2013-01-16 16:28:00,50.8,49.0,30.15,SSE,165,0.0,-999.0,93,-99.99,,,0.34,weatherlink.com 1.10,2013-01-16 21:28:00,
2013-01-16 16:43:00,50.6,49.0,30.14,SSE,165,0.0,-999.0,93,-99.99,,,0.34,weatherlink.com 1.10,2013-01-16 21:43:00,
2013-01-16 16:58:00,50.3,48.0,30.15,SSE,165,0.0,-999.0,93,-99.99,,,0.34,weatherlink.com 1.10,2013-01-16 21:58:00,
2013-01-16 17:13:00,50.1,49.0,30.15,SSE,165,0.0,-999.0,94,-99.99,,,0.34,weatherlink.com 1.10,2013-01-16 22:13:00,
2013-01-16 17:28:00,49.9,48.0,30.14,SSE,165,0.0,-999.0,94,-99.99,,,0.34,weatherlink.com 1.10,2013-01-16 22:28:00,
2013-01-16 17:43:00,49.7,48.0,30.14,SSE,165,0.0,-999.0,94,-99.99,,,0.34,weatherlink.com 1.10,2013-01-16 22:43:00,
2013-01-16 17:58:00,49.6,48.0,30.15,SSE,165,0.0,-999.0,95,-99.99,,,0.34,weatherlink.com 1.10,2013-01-16 22:58:00,
2013-01-16 18:13:00,49.5,48.0,30.15,SSE,165,0.0,-999.0,95,-99.99,,,0.34,weatherlink.com 1.10,2013-01-16 23:13:00,
2013-01-16 18:28:00,49.4,48.0,30.15,SSE,165,0.0,-999.0,95,-99.99,,,0.34,weatherlink.com 1.10,2013-01-16 23:28:00,
2013-01-16 18:43:00,49.3,48.0,30.15,SSE,165,0.0,-999.0,95,-99.99,,,0.34,weatherlink.com 1.10,2013-01-16 23:43:00,
2013-01-16 18:58:00,49.2,48.0,30.15,SSE,165,0.0,-999.0,96,-99.99,,,0.34,weatherlink.com 1.10,2013-01-16 23:58:00,
2013-01-16 19:13:00,49.1,48.0,30.15,SSE,165,0.0,-999.0,96,-99.99,,,0.34,weatherlink.com 1.10,2013-01-17 00:13:00,
2013-01-16 19:28:00,49.0,48.0,30.15,SSE,165,0.0,-999.0,96,-99.99,,,0.34,weatherlink.com 1.10,2013-01-17 00:28:00,
2013-01-16 19:43:00,48.9,48.0,30.15,SSE,165,0.0,-999.0,96,-99.99,,,0.34,weatherlink.com 1.10,2013-01-17 00:43:00,
2013-01-16 19:58:00,48.8,48.0,30.15,SSE,165,0.0,-999.0,96,-99.99,,,0.34,weatherlink.com 1.10,2013-01-17 00:58:00,
2013-01-16 20:14:00,48.7,48.0,30.15,SSE,165,0.0,-999.0,96,-99.99,,,0.34,weatherlink.com 1.10,2013-01-17 01:14:00,
2013-01-16 20:29:00,48.7,48.0,30.16,SSE,165,0.0,-999.0,96,-99.99,,,0.34,weatherlink.com 1.10,2013-01-17 01:29:00,
2013-01-16 20:44:00,48.6,48.0,30.14,SSE,165,0.0,-999.0,96,-99.99,,,0.34,weatherlink.com 1.10,2013-01-17 01:44:00,
2013-01-16 20:59:00,48.6,48.0,30.15,SSE,165,0.0,-999.0,97,-99.99,,,0.34,weatherlink.com 1.10,2013-01-17 01:59:00,
2013-01-16 21:14:00,48.5,48.0,30.14,SSE,165,0.0,-999.0,97,-99.99,,,0.34,weatherlink.com 1.10,2013-01-17 02:14:00,
2013-01-16 21:29:00,48.5,48.0,30.14,SSE,165,0.0,-999.0,97,-99.99,,,0.34,weatherlink.com 1.10,2013-01-17 02:29:00,
2013-01-16 21:44:00,48.4,48.0,30.14,SSE,165,0.0,-999.0,97,-99.99,,,0.35,weatherlink.com 1.10,2013-01-17 02:44:00,
2013-01-16 21:59:00,48.4,48.0,30.14,SSE,165,0.0,-999.0,97,-99.99,,,0.35,weatherlink.com 1.10,2013-01-17 02:59:00,
2013-01-16 22:14:00,48.4,48.0,30.13,SSE,165,0.0,-999.0,97,-99.99,,,0.35,weatherlink.com 1.10,2013-01-17 03:14:00,
2013-01-16 22:29:00,48.4,48.0,30.14,SSE,165,0.0,-999.0,97,-99.99,,,0.36,weatherlink.com 1.10,2013-01-17 03:29:00,
2013-01-16 22:44:00,48.4,48.0,30.14,SSE,165,0.0,-999.0,97,-99.99,,,0.36,weatherlink.com 1.10,2013-01-17 03:44:00,
2013-01-16 22:59:00,48.4,48.0,30.13,SSE,165,0.0,-999.0,97,-99.99,,,0.37,weatherlink.com 1.10,2013-01-17 03:59:00,
2013-01-16 23:14:00,48.5,48.0,30.13,SSE,165,0.0,-999.0,97,-99.99,,,0.37,weatherlink.com 1.10,2013-01-17 04:14:00,
2013-01-16 23:29:00,48.4,48.0,30.12,SSE,165,0.0,-999.0,97,-99.99,,,0.37,weatherlink.com 1.10,2013-01-17 04:29:00,
2013-01-16 23:44:00,48.3,48.0,30.14,SSE,165,0.0,-999.0,97,-99.99,,,0.37,weatherlink.com 1.10,2013-01-17 04:44:00,
2013-01-16 23:59:00,48.3,48.0,30.12,SSE,165,0.0,-999.0,97,-99.99,,,0.38,weatherlink.com 1.10,2013-01-17 04:59:00,